Volver al catálogo

COSMOS 1435

ActivoMilitarLEO
NORAD 13767·PAYLOAD·🇷🇺 Russia

Lanzado Jan 19, 1983 desde Plesetsk Cosmodrome

Loading…

Próximos Pases (próximas 24 horas)

TLE

ActualizadoSource: Space-Track

Época: Sep 14, 2026, 14:52 UTC

1 13767U 83002G   26257.61986437  .00000003  00000-0  11874-3 0  9990
2 13767  74.0280 344.6409 0034091  16.3637  50.7935 12.55714602   967

Sigue COSMOS 1435 en tiempo real con AllMySat

Download on the App Store